DELTA 1 DEB, 48087

Orbit data source: Space-Track

DELTA 1 DEB, 48087 is space debris in SSO originally from a launch on Thu, 12 Jun 1975 UTC launched from the Air Force Western Test Range (AFWTR). Debris objects in space refer to the collection of defunct objects orbiting the Earth. Examples of debris include non-operational satellites, rocket bodies, and fragments generated from explosions, collisions, or faulty payload assembly.

Loading next visibility...
Identifier
48087, 1975-052MX
Orbit
SSO
Country
Flag of USUS
Related business
Manufacturer
Unknown
Mission
Spacecraft
Bus & Motor
Unknown
Mass
Unknown
Launch date (UTC)
1975-06-12 (50 years ago)
Launch vehicle
Unknown
Launch site
Air Force Western Test Range (AFWTR)
Object type
Payload
Rocket body
Debris
Shape & HBR
Unknown shape, 0.1 m
Radar Cross Section
Small (<0.1 m²)

Expand to show TLE details & history
Last TLE update: 1 week ago

TLE from 1 week ago
0 DELTA 1 DEB
1 48087U 75052MX  25278.82359095  .00000593  00000-0  10986-2 0  9994
2 48087  99.6924 117.3712 0057151  45.0137 315.5605 13.43303515581433
Epoch: 2025-10-05T19:45Z
TLE epoch observation values (Epoch: 2025-10-05T19:45:58.258Z)
Latitude
-0.00001°
Longitude
166.1428°
Altitude
1,069.388 km
Speed
7.332 km/s
True Right ascension
07h 49m 29s
True Declination
0° 00' 00"
Sunlit
Object was in daylight at epoch
Visualization orbit readout
Latitude
Unknown
Longitude
Unknown
Altitude
Unknown
Speed
Unknown
Apparent Right ascension
Unknown
Apparent Declination
Unknown
Sunlit
N/A
Visualization observer readout
Local Sidereal Time
07:25:46
Azimuth
Unknown
Elevation
Unknown
Doppler factor
Unknown
Orbital elements
Apogee altitude
1,137.014 km
Perigee altitude
1,051.603 km
Semi-major axis
7,472.445 km
Eccentricity
0.00572
Inclination
99.6924°
RAAN
117.3712°
Arg. of periapsis
45.0137°
True anomaly
315.09962°
Mean anomaly
315.5605°
Eccentric anomaly
315.3303°
Mean motion
3.36008 °/min
Orbital period
107.14 mins
BSTAR
0.0010986
Loading maneuver chart data...
Computing Atmospheric mass density...

Documentation

Showing up to 5 results
|